Temp
-11 -11 -10 -10 -10 -10 -10 -10 -10 -10 -10 -10 -10 -9 -9 -9 -9 -7 -7 -7 -7 -7 -7 -6 -7 -6 -7 -7 -6 -6 -6 -7 -6 -6 -6 -4 -3 -3 -4 -4 -4 -4 -5 -4 -4 -4 -6 -6 -5 -5 -5 -5 -5 -6
-11 -11 -10 -10 -10 -10 -11 -10 -10 -11 -10 -10 -9 -9 -9 -9 -8 -7 -7 -7 -7 -7 -7 -7 -7 -7 -6 -6 -6 -6 -6 -6 -6 -6 -4 -4 -3 -3 -3 -5 -4 -4 -4 -4 -4 -4 -5 -5 -5 -5 -5 -6 -5 -6
-12 -11 -11 -10 -10 -10 -11 -11 -10 -11 -11 -10 -10 -9 -9 -8 -8 -7 -7 -7 -7 -7 -7 -7 -6 -6 -6 -7 -7 -5 -6 -6 -5 -5 -5 -4 -4 -3 -4 -4 -5 -5 -4 -4 -5 -5 -5 -6 -6 -6 -6 -6 -6 -6
-12 -11 -11 -10 -10 -10 -11 -11 -10 -11 -11 -11 -10 -9 -9 -9 -8 -8 -7 -7 -7 -7 -7 -7 -7 -6 -7 -6 -5 -6 -5 -5 -5 -5 -5 -5 -4 -4 -4 -4 -4 -4 -4 -5 -5 -6 -4 -5 -6 -6 -6 -6 -7 -7
-12 -11 -10 -10 -10 -11 -11 -11 -11 -11 -11 -11 -9 -9 -9 -9 -8 -8 -8 -8 -7 -7 -8 -8 -8 -8 -7 -7 -6 -6 -6 -6 -5 -5 -5 -4 -4 -4 -5 -4 -4 -5 -4 -5 -5 -5 -6 -6 -6 -7 -7 -7 -7 -7
-12 -11 -10 -11 -11 -10 -11 -11 -11 -12 -12 -10 -10 -9 -9 -9 -9 -8 -8 -8 -7 -8 -7 -8 -9 -8 -7 -7 -6 -7 -7 -6 -6 -6 -5 -5 -5 -5 -5 -6 -6 -6 -5 -5 -5 -6 -6 -7 -7 -7 -7 -7 -7 -7
-12 -11 -10 -10 -11 -11 -11 -11 -12 -12 -12 -10 -10 -10 -9 -9 -8 -8 -8 -9 -8 -7 -6 -8 -9 -8 -8 -7 -7 -7 -7 -7 -6 -6 -6 -5 -5 -5 -5 -6 -5 -5 -6 -6 -6 -6 -7 -7 -7 -7 -7 -8 -8 -8
-11 -10 -10 -11 -11 -11 -11 -11 -12 -12 -12 -11 -11 -10 -10 -9 -9 -8 -9 -9 -9 -8 -7 -8 -9 -9 -9 -9 -8 -8 -8 -7 -7 -7 -7 -6 -6 -6 -6 -6 -6 -6 -6 -6 -6 -6 -7 -8 -8 -8 -8 -8 -8 -8
-10 -10 -11 -11 -11 -11 -11 -11 -11 -11 -11 -12 -11 -10 -10 -9 -9 -9 -9 -9 -8 -7 -8 -8 -9 -9 -9 -8 -8 -8 -8 -8 -8 -7 -8 -7 -7 -6 -6 -5 -5 -5 -5 -6 -6 -6 -7 -7 -7 -8 -8 -8 -8 -8
-10 -10 -11 -11 -11 -11 -11 -11 -11 -11 -12 -12 -12 -11 -10 -10 -9 -10 -9 -8 -8 -8 -8 -8 -8 -7 -8 -9 -9 -8 -8 -8 -8 -8 -8 -8 -7 -7 -6 -6 -6 -6 -6 -6 -6 -6 -7 -7 -7 -8 -8 -8 -8 -8
-10 -10 -11 -11 -11 -11 -11 -11 -11 -11 -11 -12 -11 -10 -10 -10 -10 -10 -10 -9 -8 -8 -8 -8 -8 -7 -8 -8 -8 -8 -8 -8 -8 -8 -8 -7 -7 -7 -6 -6 -6 -6 -6 -6 -6 -7 -7 -7 -7 -7 -8 -8 -8 -8
-10 -11 -11 -11 -11 -11 -12 -12 -12 -11 -11 -11 -10 -10 -10 -10 -9 -9 -9 -9 -9 -8 -9 -8 -8 -8 -8 -8 -8 -8 -7 -8 -8 -8 -7 -7 -7 -7 -6 -6 -6 -6 -6 -6 -6 -7 -7 -7 -7 -7 -7 -8 -8 -8
-11 -11 -11 -11 -11 -12 -12 -12 -12 -12 -12 -12 -12 -11 -10 -10 -9 -9 -9 -9 -8 -8 -8 -8 -8 -8 -9 -8 -8 -7 -8 -8 -8 -8 -7 -7 -7 -7 -6 -6 -6 -6 -6 -6 -7 -7 -7 -7 -7 -7 -7 -8 -8 -8
-11 -11 -11 -11 -12 -12 -12 -12 -12 -13 -12 -12 -11 -10 -10 -10 -10 -10 -9 -8 -8 -8 -8 -8 -8 -8 -8 -8 -8 -8 -9 -9 -9 -9 -7 -7 -7 -7 -6 -7 -7 -7 -7 -7 -7 -7 -7 -7 -7 -7 -7 -8 -8 -8
-11 -11 -12 -12 -12 -12 -12 -12 -12 -13 -12 -12 -11 -10 -10 -9 -9 -9 -9 -9 -8 -8 -8 -9 -9 -8 -9 -8 -8 -8 -9 -9 -9 -8 -8 -7 -7 -7 -7 -7 -7 -7 -7 -7 -7 -7 -7 -7 -7 -7 -7 -8 -8 -8
-11 -11 -12 -12 -12 -12 -12 -12 -13 -12 -12 -12 -11 -10 -10 -10 -9 -9 -9 -9 -9 -9 -10 -10 -9 -9 -9 -8 -8 -8 -9 -9 -8 -8 -8 -7 -7 -7 -7 -7 -7 -7 -7 -7 -7 -7 -7 -7 -7 -7 -7 -8 -8 -8
-11 -11 -12 -13 -13 -13 -13 -13 -12 -12 -11 -12 -12 -12 -11 -11 -10 -10 -10 -10 -10 -10 -10 -10 -9 -9 -9 -9 -9 -9 -9 -8 -8 -8 -8 -8 -8 -8 -8 -7 -7 -7 -7 -8 -8 -8 -8 -8 -8 -7 -8 -8 -8 -8
-11 -12 -12 -13 -13 -13 -13 -11 -11 -12 -12 -12 -12 -11 -11 -11 -11 -10 -10 -10 -10 -10 -10 -10 -10 -10 -9 -10 -9 -9 -9 -8 -8 -8 -8 -8 -8 -8 -8 -8 -8 -8 -8 -8 -8 -8 -8 -8 -8 -8 -8 -8 -8 -8
-11 -11 -12 -12 -12 -11 -11 -11 -11 -12 -12 -12 -11 -11 -11 -10 -10 -10 -10 -10 -11 -11 -10 -10 -10 -10 -10 -10 -9 -9 -9 -8 -9 -8 -8 -8 -8 -8 -8 -8 -8 -8 -8 -8 -8 -8 -8 -8 -8 -8 -8 -8 -8 -8
-12 -11 -12 -12 -12 -11 -11 -11 -11 -11 -12 -11 -11 -11 -11 -11 -10 -10 -10 -10 -11 -11 -11 -11 -10 -10 -10 -10 -10 -10 -9 -9 -9 -9 -9 -9 -9 -8 -8 -8 -8 -8 -8 -8 -8 -9 -8 -8 -8 -8 -8 -8 -9 -9
-12 -12 -11 -12 -12 -11 -11 -11 -11 -12 -12 -12 -11 -11 -11 -11 -11 -10 -10 -10 -10 -11 -11 -11 -11 -11 -11 -11 -11 -10 -10 -9 -9 -9 -9 -9 -9 -9 -9 -9 -9 -9 -9 -9 -9 -9 -9 -9 -9 -9 -9 -9 -9 -9
-12 -12 -12 -13 -13 -12 -12 -11 -12 -12 -12 -12 -11 -11 -11 -11 -11 -11 -10 -10 -10 -10 -11 -11 -11 -11 -11 -11 -11 -11 -11 -10 -10 -10 -9 -9 -9 -9 -9 -9 -9 -9 -9 -9 -9 -9 -9 -9 -9 -9 -9 -9 -9 -10
-12 -12 -13 -13 -13 -12 -12 -12 -12 -12 -12 -12 -12 -12 -11 -11 -11 -11 -11 -11 -11 -11 -11 -11 -12 -12 -11 -11 -11 -11 -10 -10 -10 -10 -10 -10 -9 -9 -9 -9 -9 -9 -9 -9 -9 -9 -9 -9 -9 -9 -10 -10 -10 -10
-14 -14 -13 -13 -13 -12 -12 -12 -12 -12 -12 -12 -12 -12 -12 -12 -12 -12 -12 -12 -12 -12 -12 -12 -12 -12 -12 -11 -11 -11 -11 -10 -10 -10 -10 -10 -10 -9 -9 -9 -9 -9 -9 -9 -9 -9 -9 -10 -10 -10 -10 -10 -10 -11
-14 -14 -13 -13 -13 -13 -13 -12 -12 -12 -12 -12 -12 -13 -13 -13 -13 -13 -13 -13 -12 -12 -13 -12 -12 -12 -12 -11 -11 -11 -11 -10 -10 -10 -10 -10 -10 -10 -10 -10 -10 -10 -10 -10 -10 -10 -10 -10 -10 -11 -11 -11 -11 -11
-14 -14 -14 -14 -13 -13 -13 -13 -13 -13 -13 -13 -13 -13 -13 -14 -14 -14 -14 -13 -13 -13 -13 -12 -12 -11 -11 -11 -11 -11 -11 -10 -10 -10 -10 -10 -10 -10 -10 -10 -10 -10 -11 -11 -11 -10 -10 -11 -11 -11 -11 -12 -12 -13
-14 -14 -14 -14 -14 -14 -14 -14 -13 -14 -13 -14 -14 -14 -14 -14 -14 -13 -13 -13 -13 -13 -13 -12 -12 -12 -12 -12 -11 -11 -11 -11 -11 -11 -11 -10 -10 -10 -10 -11 -11 -11 -11 -11 -11 -11 -11 -12 -12 -12 -13 -13 -13 -14
-15 -15 -14 -14 -15 -14 -14 -14 -14 -14 -14 -14 -14 -14 -14 -14 -14 -14 -14 -13 -13 -13 -13 -13 -13 -13 -13 -13 -12 -12 -12 -12 -11 -11 -11 -11 -11 -11 -11 -11 -12 -12 -12 -12 -12 -12 -13 -13 -13 -14 -14 -14 -15 -15
-15 -15 -15 -15 -15 -15 -15 -14 -14 -14 -14 -14 -14 -13 -14 -14 -14 -14 -14 -14 -14 -14 -14 -14 -14 -14 -13 -13 -13 -13 -13 -12 -12 -12 -12 -11 -12 -13 -13 -13 -13 -13 -13 -13 -13 -14 -14 -14 -15 -15 -15 -16 -16 -17
-15 -15 -15 -15 -15 -15 -14 -14 -14 -14 -14 -14 -14 -14 -14 -14 -14 -14 -14 -14 -14 -14 -14 -14 -14 -14 -14 -14 -14 -14 -14 -14 -13 -14 -13 -13 -14 -14 -14 -14 -14 -14 -14 -15 -15 -15 -15 -16 -16 -16 -17 -17 -18 -18
-15 -15 -15 -15 -15 -15 -14 -15 -14 -14 -14 -14 -14 -14 -14 -14 -14 -14 -14 -14 -14 -14 -15 -15 -15 -15 -15 -15 -14 -14 -14 -14 -15 -15 -15 -15 -15 -15 -15 -15 -15 -16 -16 -16 -16 -16 -16 -17 -17 -17 -18 -18 -19 -20
-15 -15 -15 -15 -15 -15 -15 -15 -15 -15 -15 -15 -15 -15 -15 -14 -15 -15 -14 -15 -15 -15 -15 -16 -16 -16 -16 -15 -15 -15 -15 -15 -16 -16 -16 -16 -16 -16 -16 -16 -16 -16 -16 -16 -16 -17 -17 -17 -18 -18 -19 -19 -20 -21
-15 -15 -15 -16 -16 -15 -15 -16 -16 -16 -16 -16 -15 -15 -15 -15 -15 -15 -16 -16 -16 -16 -16 -16 -16 -16 -16 -16 -16 -16 -17 -17 -17 -17 -17 -17 -17 -17 -17 -17 -17 -17 -17 -17 -17 -17 -18 -18 -19 -19 -20 -20 -21 -21
Height
2865 2870 2877 2883 2890 2894 2898 2901 2904 2906 2908 2911 2915 2919 2921 2923 2927 2930 2932 2934 2937 2939 2946 2953 2959 2964 2969 2976 2979 2986 2994 2998 3004 3010 3017 3018 3019 3022 3023 3027 3030 3034 3039 3041 3043 3043 3045 3043 3046 3048 3048 3047 3048 3048
2862 2867 2874 2881 2887 2892 2896 2900 2902 2905 2907 2911 2914 2919 2922 2925 2927 2931 2929 2935 2936 2941 2947 2954 2959 2964 2968 2976 2981 2987 2993 2996 3002 3009 3012 3014 3015 3017 3020 3025 3029 3034 3035 3036 3038 3038 3038 3039 3042 3043 3044 3045 3045 3046
2859 2865 2872 2879 2884 2890 2895 2899 2901 2904 2906 2909 2914 2920 2923 2925 2930 2930 2932 2936 2941 2944 2951 2956 2962 2968 2973 2979 2985 2988 2991 2996 3000 3005 3008 3011 3012 3015 3018 3021 3023 3027 3030 3032 3035 3035 3037 3039 3040 3041 3042 3043 3043 3043
2857 2865 2871 2877 2882 2888 2894 2897 2900 2902 2905 2908 2914 2921 2924 2928 2931 2932 2934 2938 2942 2948 2950 2958 2962 2969 2975 2980 2983 2987 2991 2994 3000 3003 3007 3009 3011 3014 3016 3019 3022 3025 3027 3028 3029 3030 3034 3037 3038 3038 3039 3040 3041 3041
2856 2863 2868 2876 2882 2888 2893 2896 2898 2902 2905 2909 2915 2920 2925 2928 2933 2933 2938 2942 2946 2952 2952 2959 2965 2971 2976 2980 2983 2987 2991 2995 2999 3002 3005 3008 3010 3013 3014 3017 3020 3022 3024 3025 3025 3028 3031 3033 3034 3035 3037 3038 3039 3039
2855 2862 2869 2876 2883 2888 2892 2896 2899 2902 2906 2911 2916 2922 2926 2930 2934 2938 2942 2946 2950 2954 2957 2963 2968 2973 2976 2979 2982 2986 2989 2993 2996 3000 3004 3005 3009 3013 3015 3016 3017 3019 3021 3022 3024 3026 3028 3030 3031 3033 3035 3037 3037 3036
2855 2862 2870 2878 2884 2888 2892 2897 2901 2904 2908 2912 2918 2923 2928 2932 2936 2941 2944 2946 2951 2955 2958 2964 2970 2974 2976 2980 2983 2986 2988 2991 2995 3000 3003 3005 3009 3010 3012 3012 3014 3017 3019 3020 3022 3023 3025 3027 3029 3031 3033 3034 3034 3034
2858 2864 2872 2879 2884 2889 2894 2898 2902 2906 2910 2914 2918 2924 2929 2935 2939 2943 2947 2951 2955 2958 2961 2965 2971 2976 2978 2981 2984 2987 2989 2993 2995 2997 3000 3004 3006 3008 3009 3010 3012 3014 3016 3017 3018 3021 3023 3025 3027 3029 3030 3031 3031 3031
2860 2868 2875 2881 2886 2891 2896 2900 2904 2907 2912 2916 2920 2926 2933 2939 2942 2946 2951 2954 2958 2962 2961 2965 2968 2975 2979 2982 2985 2988 2989 2993 2996 2997 2999 3003 3003 3005 3004 3008 3010 3012 3013 3015 3017 3019 3021 3024 3026 3027 3027 3028 3028 3029
2863 2871 2877 2883 2889 2894 2898 2902 2905 2909 2914 2920 2925 2931 2936 2941 2946 2949 2955 2958 2962 2962 2963 2966 2970 2972 2979 2982 2985 2989 2990 2992 2995 2997 2999 3000 3001 3003 3003 3006 3009 3011 3012 3015 3017 3019 3020 3022 3023 3024 3025 3025 3026 3027
2869 2876 2882 2887 2891 2896 2900 2903 2908 2914 2919 2924 2929 2934 2939 2944 2949 2953 2956 2960 2963 2965 2967 2970 2973 2974 2979 2983 2983 2987 2988 2991 2993 2995 2997 2997 2998 3000 3001 3004 3007 3010 3012 3014 3016 3018 3019 3020 3021 3022 3023 3024 3025 3026
2874 2880 2885 2889 2894 2898 2902 2906 2910 2916 2922 2928 2934 2938 2943 2948 2951 2954 2958 2961 2962 2965 2967 2971 2973 2976 2979 2982 2984 2987 2988 2990 2991 2993 2994 2994 2996 2997 3000 3003 3006 3008 3010 3013 3015 3017 3018 3018 3020 3021 3022 3023 3024 3024
2878 2883 2888 2894 2898 2902 2906 2910 2913 2918 2923 2930 2936 2941 2945 2948 2950 2953 2955 2959 2961 2963 2967 2970 2973 2976 2980 2982 2984 2985 2987 2989 2990 2990 2991 2992 2994 2996 2999 3002 3004 3006 3009 3011 3013 3014 3014 3016 3018 3019 3020 3021 3022 3022
2882 2888 2893 2898 2902 2906 2911 2915 2918 2923 2929 2933 2938 2942 2945 2947 2949 2951 2954 2959 2962 2964 2967 2970 2973 2976 2978 2981 2982 2985 2987 2988 2989 2989 2989 2991 2992 2995 2998 3001 3003 3006 3007 3009 3010 3011 3012 3014 3015 3016 3018 3019 3020 3020
2888 2893 2897 2902 2906 2910 2914 2919 2923 2928 2931 2935 2939 2942 2944 2947 2949 2952 2955 2959 2962 2964 2967 2970 2974 2976 2979 2981 2982 2984 2985 2985 2986 2987 2988 2989 2991 2994 2997 2999 3002 3004 3006 3007 3008 3009 3009 3011 3012 3013 3015 3016 3017 3017
2892 2896 2900 2905 2909 2913 2917 2922 2927 2932 2934 2938 2941 2943 2945 2947 2950 2953 2956 2959 2961 2963 2966 2970 2973 2976 2978 2979 2980 2981 2983 2984 2985 2986 2987 2989 2991 2993 2995 2998 3000 3001 3003 3004 3005 3006 3006 3008 3009 3010 3011 3012 3013 3013
2899 2899 2905 2909 2914 2918 2923 2928 2932 2936 2938 2940 2944 2945 2947 2949 2951 2953 2955 2958 2961 2964 2966 2970 2973 2976 2978 2978 2980 2981 2981 2983 2984 2985 2987 2988 2991 2993 2995 2996 2998 2999 3000 3001 3002 3003 3003 3004 3005 3005 3007 3008 3009 3009
2907 2909 2913 2918 2922 2926 2930 2933 2934 2937 2940 2943 2946 2948 2949 2951 2952 2953 2955 2958 2962 2964 2967 2970 2973 2975 2976 2978 2978 2979 2981 2982 2984 2985 2987 2989 2990 2992 2993 2994 2995 2996 2997 2998 2999 2999 2999 2999 3000 3000 3001 3002 3003 3003
2914 2917 2921 2924 2928 2930 2934 2937 2939 2941 2945 2948 2949 2951 2953 2954 2955 2957 2959 2961 2964 2966 2969 2970 2973 2974 2975 2976 2977 2978 2980 2982 2983 2985 2986 2988 2989 2990 2991 2992 2992 2993 2994 2994 2995 2995 2994 2994 2994 2995 2995 2996 2996 2997
2921 2923 2926 2929 2932 2935 2938 2941 2943 2946 2949 2952 2953 2955 2956 2957 2959 2961 2962 2964 2966 2968 2970 2971 2973 2973 2974 2976 2977 2979 2979 2980 2982 2983 2984 2985 2986 2987 2988 2989 2989 2990 2990 2990 2990 2990 2990 2990 2989 2989 2989 2989 2988 2989
2925 2928 2931 2934 2937 2939 2941 2944 2946 2950 2952 2954 2956 2958 2960 2961 2962 2963 2965 2966 2967 2968 2969 2970 2972 2974 2975 2975 2977 2978 2979 2980 2980 2981 2982 2982 2983 2984 2984 2985 2985 2985 2985 2985 2985 2984 2984 2984 2983 2982 2982 2982 2982 2980
2929 2931 2934 2936 2939 2942 2944 2946 2949 2951 2954 2955 2957 2959 2960 2961 2963 2964 2965 2965 2965 2966 2967 2969 2970 2970 2972 2974 2974 2975 2976 2976 2977 2977 2978 2978 2979 2980 2980 2980 2980 2980 2980 2980 2979 2978 2977 2977 2976 2975 2973 2972 2973 2972
2932 2934 2936 2938 2941 2943 2947 2948 2949 2952 2954 2956 2958 2959 2960 2961 2962 2962 2962 2962 2963 2964 2965 2965 2965 2966 2967 2967 2969 2970 2970 2971 2971 2972 2972 2972 2973 2973 2974 2974 2974 2973 2973 2973 2971 2970 2971 2970 2968 2967 2966 2965 2964 2963
2933 2936 2938 2940 2942 2944 2946 2947 2949 2952 2953 2955 2956 2957 2958 2959 2959 2959 2958 2957 2958 2958 2959 2960 2961 2962 2962 2963 2963 2964 2964 2964 2965 2965 2965 2965 2965 2966 2966 2967 2967 2967 2966 2965 2964 2963 2963 2962 2961 2959 2958 2957 2956 2954
2937 2939 2940 2940 2942 2944 2945 2947 2949 2951 2952 2953 2954 2954 2954 2955 2955 2954 2953 2952 2952 2953 2954 2955 2956 2957 2957 2958 2958 2958 2958 2958 2958 2958 2957 2958 2958 2959 2959 2959 2959 2959 2959 2957 2956 2955 2954 2953 2952 2951 2950 2948 2947 2945
2936 2937 2939 2939 2941 2943 2944 2946 2947 2949 2950 2951 2951 2951 2951 2952 2952 2950 2949 2948 2949 2949 2949 2949 2950 2951 2951 2951 2951 2951 2951 2951 2951 2951 2951 2952 2951 2951 2951 2951 2951 2951 2950 2949 2948 2947 2946 2945 2944 2942 2941 2940 2938 2936
2935 2936 2937 2939 2940 2941 2942 2944 2945 2946 2946 2947 2947 2948 2948 2948 2947 2947 2946 2946 2945 2945 2945 2945 2945 2945 2945 2944 2944 2944 2944 2944 2944 2944 2944 2944 2944 2944 2944 2944 2943 2942 2941 2941 2939 2938 2937 2936 2935 2934 2932 2931 2929 2928
2935 2935 2936 2937 2938 2939 2940 2942 2943 2943 2944 2944 2945 2945 2945 2945 2945 2944 2944 2943 2942 2941 2941 2941 2941 2941 2940 2940 2940 2940 2939 2938 2938 2938 2937 2937 2937 2937 2937 2936 2935 2934 2933 2932 2931 2929 2928 2927 2926 2925 2924 2922 2921 2919
2933 2933 2935 2935 2936 2937 2939 2940 2941 2941 2942 2942 2942 2942 2941 2941 2942 2941 2941 2940 2940 2940 2939 2939 2939 2938 2936 2936 2936 2935 2935 2934 2934 2933 2932 2931 2933 2932 2930 2929 2928 2927 2926 2925 2923 2922 2921 2920 2918 2917 2916 2915 2913 2912
2932 2932 2933 2934 2935 2936 2937 2937 2938 2938 2938 2938 2938 2938 2938 2938 2937 2937 2936 2936 2936 2935 2935 2935 2934 2933 2931 2931 2931 2930 2930 2929 2928 2928 2927 2926 2925 2925 2924 2923 2922 2921 2919 2918 2917 2915 2914 2913 2911 2910 2909 2908 2907 2906
2931 2931 2932 2932 2932 2933 2934 2934 2933 2933 2933 2933 2933 2933 2933 2931 2931 2930 2930 2929 2929 2929 2928 2928 2927 2927 2926 2925 2925 2925 2924 2924 2923 2922 2921 2920 2919 2918 2918 2916 2915 2913 2912 2911 2910 2908 2907 2906 2905 2904 2902 2902 2901 2900
2929 2929 2929 2929 2929 2929 2929 2928 2927 2927 2926 2925 2924 2924 2924 2923 2923 2922 2922 2921 2921 2920 2919 2919 2919 2919 2919 2918 2918 2918 2917 2917 2916 2916 2915 2914 2913 2912 2911 2909 2908 2907 2905 2904 2903 2902 2901 2899 2898 2897 2895 2895 2894 2893
2923 2923 2923 2923 2922 2922 2922 2922 2920 2920 2918 2916 2916 2916 2915 2915 2914 2915 2913 2913 2913 2912 2912 2911 2911 2911 2912 2911 2911 2911 2911 2910 2910 2909 2908 2907 2906 2905 2904 2903 2902 2901 2899 2898 2897 2896 2895 2893 2892 2891 2890 2889 2888 2887
Wind_Speed
29 31 34 28 24 22 16 13 12 12 10 25 20 17 14 17 19 22 18 22 27 30 34 34 32 40 39 36 36 36 31 26 27 22 24 14 10 17 14 20 27 22 14 13 13 4 6 16 13 11 8 6 6 8
26 31 38 28 24 21 16 12 12 13 13 23 21 20 15 17 19 16 17 21 24 31 34 37 34 33 26 21 29 25 26 29 24 26 14 14 11 16 20 17 11 11 17 13 9 10 10 13 14 8 8 8 8 6
25 32 37 29 28 23 17 13 12 13 10 19 25 27 21 25 21 13 21 32 23 28 30 28 28 28 24 21 15 20 20 29 30 25 16 14 8 15 15 13 23 17 20 16 14 13 8 11 10 9 8 8 7 6
28 30 31 32 27 22 17 15 14 13 12 18 27 25 22 23 19 18 30 29 32 31 32 26 30 27 20 18 15 18 21 25 26 21 17 14 12 14 11 10 19 15 17 17 17 17 17 10 11 9 8 6 5 5
33 29 29 25 22 19 16 14 13 16 17 18 30 28 20 22 21 22 23 23 24 18 33 23 18 18 17 15 13 13 16 20 26 23 18 16 14 13 10 8 15 15 14 13 20 21 15 11 9 8 7 6 6 6
30 29 31 29 26 20 17 14 13 19 17 21 21 22 29 26 24 21 25 18 20 9 27 24 18 14 12 13 15 16 17 19 25 22 19 20 17 15 14 10 14 15 12 9 9 9 9 9 7 8 8 7 6 9
37 25 34 27 25 20 17 16 16 16 15 21 22 30 27 25 23 24 21 22 18 11 25 21 14 15 16 14 14 17 20 20 20 21 19 18 18 18 17 15 18 14 12 12 10 10 9 8 7 8 6 6 7 8
26 34 33 26 24 22 16 16 16 18 15 20 23 32 26 23 21 19 21 20 18 21 17 11 15 18 18 17 18 19 18 15 16 17 16 13 18 19 11 18 13 11 11 11 11 10 10 9 8 7 7 6 6 6
34 33 25 25 23 19 18 17 13 15 20 24 25 31 23 22 19 23 20 16 14 8 7 11 21 20 15 13 15 16 17 14 14 14 15 13 15 10 13 10 10 7 7 8 10 11 11 10 8 6 6 5 5 5
34 27 23 23 22 18 19 18 16 16 29 25 24 22 21 21 18 18 16 15 9 7 8 16 14 18 18 14 13 10 10 10 12 13 13 14 13 11 10 9 9 8 9 9 9 10 9 8 6 4 5 6 4 2
30 26 23 21 19 20 16 16 18 23 29 25 22 23 24 22 22 16 10 8 7 7 11 10 8 18 15 11 12 9 7 7 6 7 9 9 12 13 13 11 10 10 9 9 9 9 8 6 4 5 6 5 4 3
29 21 20 20 19 17 16 21 21 20 22 25 21 23 23 15 9 6 12 9 6 7 16 12 16 13 14 10 7 6 5 6 3 7 7 7 11 13 12 10 9 9 9 9 9 9 7 5 4 5 6 6 5 4
25 23 25 23 22 22 18 16 21 26 28 26 27 19 13 4 5 7 8 9 9 15 16 16 14 13 12 7 6 5 4 4 3 6 6 9 9 13 12 11 10 9 9 8 8 5 4 4 6 7 8 8 6 5
26 25 25 23 21 20 19 16 24 29 33 26 15 13 8 5 6 10 13 14 14 13 13 13 13 13 11 7 5 4 7 5 4 3 5 7 9 10 11 12 11 9 8 9 7 7 6 7 8 9 9 8 7 7
26 24 23 21 19 19 18 19 24 24 23 14 8 6 6 7 11 12 11 11 12 12 13 15 14 8 10 5 5 5 7 5 6 3 5 5 8 11 12 10 10 9 9 10 9 9 7 9 11 11 12 11 10 9
23 22 21 20 20 21 22 26 28 24 19 8 5 7 6 8 9 11 11 11 16 18 17 14 9 6 6 4 5 4 7 3 7 7 6 7 9 10 9 8 9 11 10 9 8 9 8 11 13 14 14 13 13 12
31 32 30 30 29 28 31 25 20 15 5 9 11 10 8 8 9 11 12 14 17 21 21 11 6 5 5 4 5 6 5 6 5 6 9 9 9 8 7 8 9 9 9 8 9 9 10 13 14 15 15 16 16 16
28 33 37 35 33 31 23 14 11 14 21 17 13 11 11 13 12 11 13 17 21 21 18 10 7 8 5 5 7 8 7 5 8 11 10 8 6 6 6 7 9 10 9 9 11 11 11 13 15 17 18 19 19 19
24 27 27 26 27 24 19 13 18 18 20 18 17 16 15 13 12 12 12 15 18 13 14 12 6 8 6 10 12 9 8 9 11 12 9 6 4 5 6 6 6 7 9 11 12 11 12 13 15 18 19 20 21 22
18 20 22 21 20 18 11 14 18 13 16 16 16 15 14 13 12 10 8 8 11 11 8 6 3 5 11 7 9 7 7 8 7 7 8 10 10 10 9 9 10 11 12 12 13 12 14 16 16 18 20 20 22 23
17 14 13 14 15 10 10 11 10 15 16 14 13 13 11 10 8 6 5 3 5 11 14 13 10 8 5 6 7 8 8 7 7 6 6 4 7 9 10 11 11 11 11 12 14 14 15 17 19 21 23 24 24 25
14 14 11 9 8 8 7 10 12 13 11 12 10 8 7 6 5 3 2 3 7 9 11 12 13 15 16 16 16 14 15 16 16 16 15 14 12 13 13 13 14 15 16 16 17 18 20 20 20 22 23 24 24 26
11 10 11 11 8 5 9 12 14 11 9 9 6 3 1 1 4 7 6 7 10 10 11 12 12 13 15 16 17 18 20 23 24 24 25 26 26 22 19 18 18 19 19 20 20 20 21 21 22 22 22 22 23 24
15 13 11 8 6 5 14 13 12 10 8 7 4 3 6 7 9 11 12 14 14 12 12 15 15 15 16 16 16 15 15 17 20 22 23 22 22 23 22 22 22 21 22 21 21 21 22 22 23 23 22 22 23 25
12 10 6 6 6 7 9 10 10 8 6 6 7 8 12 11 12 11 11 15 15 11 10 14 15 16 17 17 18 19 17 16 18 19 20 20 20 22 23 22 22 23 22 22 23 24 24 23 23 24 24 24 25 25
6 4 6 6 7 7 7 8 7 7 8 9 8 9 11 9 8 6 12 14 12 11 10 11 14 17 19 18 19 19 19 19 19 21 21 20 21 22 23 24 25 25 23 24 25 25 25 25 25 26 26 26 26 27
4 3 5 6 8 9 9 9 9 8 7 6 9 10 8 5 6 10 11 11 11 12 11 11 12 14 15 16 18 18 18 18 19 20 20 20 21 23 23 24 25 25 24 24 25 26 27 27 27 26 26 26 26 26
7 6 7 8 11 11 9 8 7 6 6 8 10 8 4 5 5 7 9 12 11 10 9 9 10 10 12 13 12 12 11 12 13 15 17 19 20 21 22 22 23 23 24 25 25 25 24 25 24 24 24 23 23 24
6 7 9 7 10 10 9 10 8 6 5 6 7 9 13 12 11 9 10 9 7 8 9 10 11 13 14 13 13 13 13 13 13 15 17 19 15 16 18 19 19 20 20 20 21 20 20 20 20 21 21 21 21 21
4 6 9 8 9 12 11 10 10 11 12 12 12 14 15 16 16 18 18 18 18 18 18 17 18 18 19 18 15 15 15 15 16 16 17 18 17 18 18 19 19 20 20 19 19 20 20 19 20 20 20 20 20 20
6 7 9 11 12 12 13 15 18 19 21 21 21 20 21 22 23 24 24 24 23 23 24 23 22 21 21 21 20 19 19 18 18 18 18 18 19 19 19 19 19 19 20 20 20 20 21 20 20 20 20 19 17 17
9 8 9 10 13 14 16 17 19 20 22 24 24 24 25 25 26 27 28 27 25 24 23 23 22 22 22 22 21 21 20 19 19 18 18 18 19 19 20 20 19 19 19 19 18 17 18 18 18 18 18 17 17 17
16 17 17 18 20 21 20 18 17 16 20 24 24 22 22 24 25 24 24 23 22 21 20 19 19 18 18 18 18 17 17 17 18 18 18 18 18 18 18 17 16 16 16 16 16 15 15 14 14 14 14 15 16 16
Wind_Direction
206 199 192 194 197 203 205 202 202 187 178 181 185 184 180 187 190 176 162 176 185 179 192 184 178 178 173 176 175 179 183 173 177 182 194 191 201 179 180 187 183 188 188 212 230 216 190 222 236 221 253 256 279 293
207 201 195 193 192 195 198 199 196 191 184 190 174 159 165 174 183 154 129 153 138 170 168 165 174 171 192 206 201 190 194 194 193 186 182 197 189 183 176 166 193 191 201 194 200 217 217 230 231 251 255 281 289 285
213 203 203 186 187 193 196 196 202 195 186 186 180 170 153 169 152 112 140 154 152 153 159 188 166 176 170 168 193 212 185 185 182 180 187 191 181 163 156 168 169 188 204 218 215 216 216 216 230 243 257 268 275 290
208 191 196 190 187 187 190 197 197 192 175 178 183 165 159 149 143 123 130 139 146 150 144 137 153 163 152 171 179 187 190 189 185 183 178 171 162 174 172 185 200 203 218 221 224 233 239 234 234 237 245 251 266 289
195 194 177 172 182 187 188 187 194 194 174 182 178 171 166 182 155 135 132 145 152 161 126 128 144 147 166 180 189 189 198 191 190 192 176 174 172 175 177 169 200 213 227 240 241 247 247 247 225 219 224 239 264 288
187 186 166 171 183 182 173 165 160 161 165 172 184 189 152 150 143 140 147 156 171 152 165 136 143 154 178 188 191 183 180 186 194 195 196 199 192 189 166 197 207 224 245 257 244 229 217 216 213 206 216 235 269 292
190 175 173 176 179 176 167 165 169 167 183 154 159 150 146 148 150 151 147 128 147 171 172 143 132 145 142 150 158 166 169 181 189 197 206 207 197 205 197 213 228 237 248 256 246 233 222 204 190 206 227 253 282 293
179 163 169 171 176 179 167 169 169 182 178 175 179 156 147 159 157 142 123 130 137 155 149 138 139 151 150 148 153 157 171 176 173 175 193 195 194 202 210 220 226 236 243 235 230 217 190 187 198 210 239 269 286 292
156 155 165 168 169 167 165 163 182 193 166 154 156 153 151 160 168 155 150 138 142 149 123 155 153 154 158 159 171 164 172 175 174 168 177 181 190 207 229 223 221 213 206 207 188 175 174 184 201 221 252 277 287 284
151 165 162 163 165 163 163 163 168 159 143 158 136 148 152 157 150 151 161 157 165 119 108 147 157 157 162 159 164 167 171 161 170 185 182 198 207 197 219 197 177 176 169 167 164 169 174 183 203 242 272 278 266 230
150 153 157 161 161 158 158 166 162 153 154 150 154 152 148 148 144 149 143 145 136 119 126 131 145 154 158 173 167 160 150 154 167 186 197 194 211 203 211 193 186 183 182 175 181 181 187 195 226 260 261 244 207 214
155 150 151 152 156 150 147 159 167 164 157 151 146 140 133 125 131 130 153 152 144 148 138 153 153 157 155 161 162 149 154 155 160 181 187 193 183 188 196 195 199 189 193 189 190 199 197 202 246 249 230 208 204 221
151 152 149 142 142 139 132 128 148 150 144 135 147 137 145 119 134 140 147 156 156 160 168 165 155 153 159 148 160 151 155 161 176 176 187 180 174 196 195 194 194 195 195 200 212 209 210 242 255 227 214 212 217 231
151 150 154 156 149 150 147 142 143 136 142 142 130 146 156 148 145 150 155 156 144 152 164 172 175 171 169 153 144 148 152 164 183 203 192 182 194 195 184 187 195 210 221 222 221 221 228 255 253 229 220 222 230 242
150 150 149 152 156 156 158 152 150 143 154 123 129 148 134 138 154 157 162 171 169 157 165 166 181 184 160 156 165 158 173 184 183 190 213 181 185 178 184 198 215 220 217 223 225 232 246 262 252 231 225 231 239 249
147 149 152 155 158 160 160 149 145 158 150 129 116 156 172 165 181 184 176 177 179 167 156 164 158 156 168 180 183 157 143 162 197 202 197 195 176 182 195 206 206 213 224 223 233 242 260 266 253 237 234 239 247 254
132 126 130 132 136 144 143 140 133 140 128 124 112 122 130 152 160 171 180 174 169 159 157 149 138 166 165 184 150 153 187 197 201 177 161 156 158 164 175 193 209 219 227 232 242 259 273 271 259 246 242 244 251 255
133 128 129 129 125 123 125 135 101 111 114 124 124 115 125 126 122 135 155 165 166 168 172 161 143 153 152 151 174 183 190 189 160 162 159 162 173 189 206 225 236 238 240 247 257 271 284 280 265 254 249 248 253 259
139 133 139 139 136 131 116 98 116 115 113 117 112 108 107 110 112 106 135 158 167 176 177 161 150 160 161 170 169 192 195 187 180 183 184 189 213 222 229 242 251 254 252 254 260 271 285 285 273 264 260 258 258 260
143 139 142 146 145 142 105 109 119 117 124 120 115 108 104 102 102 107 124 151 187 194 211 223 141 143 152 179 151 165 165 168 181 199 216 224 226 231 244 260 268 267 264 266 269 277 284 287 286 273 264 260 260 261
155 161 153 153 157 151 122 131 116 137 134 133 126 116 108 97 91 92 104 134 201 216 219 220 217 211 178 189 217 221 216 212 202 200 192 220 252 261 264 262 261 261 264 270 275 280 285 289 287 282 276 267 263 265
149 151 157 157 170 164 152 147 145 153 149 148 138 122 99 73 46 20 293 259 253 242 245 246 240 236 236 246 250 249 246 247 249 249 248 260 277 279 266 268 270 267 268 277 281 279 279 282 287 286 282 276 269 267
171 170 177 170 163 132 155 160 149 149 150 156 155 147 164 320 327 315 308 285 279 265 248 247 247 247 249 253 256 256 254 253 255 261 267 273 275 273 271 264 271 273 274 277 280 282 280 280 284 287 284 282 279 276
154 166 167 159 155 159 162 173 178 177 172 175 204 251 285 299 301 298 291 294 294 284 256 241 249 253 257 259 264 267 265 262 261 264 268 269 264 265 267 270 272 273 276 279 281 281 278 276 278 282 288 290 287 283
160 166 170 167 151 159 166 181 191 195 212 236 261 273 283 294 294 296 289 286 297 295 269 247 248 253 258 266 267 267 270 269 264 263 262 261 265 269 270 269 270 273 276 278 279 281 281 281 282 284 285 286 286 286
165 162 181 180 187 195 192 196 208 222 240 252 258 260 275 281 280 252 263 290 302 301 274 256 256 263 270 269 267 267 265 262 260 261 264 266 265 266 268 271 274 275 276 276 277 279 282 284 285 286 286 286 286 286
192 188 210 218 210 205 214 227 238 246 249 251 256 273 274 243 243 258 278 289 288 285 279 272 269 271 276 274 269 267 266 265 263 263 265 265 267 269 270 271 273 276 279 279 279 280 282 284 284 284 285 285 285 284
222 231 231 221 214 219 219 219 232 244 245 241 248 246 229 223 244 283 294 301 301 297 286 281 280 280 278 276 280 283 281 275 272 270 269 268 268 272 275 277 279 281 283 283 284 285 285 285 286 286 286 286 286 287
251 244 221 224 205 211 215 221 226 223 239 232 237 250 246 257 267 278 290 301 295 286 288 290 289 286 285 287 290 288 286 284 282 279 278 279 285 281 282 284 285 286 288 290 290 290 289 288 287 287 288 288 289 290
252 222 218 228 221 224 229 241 248 251 263 274 272 262 261 266 271 275 281 283 284 285 286 287 287 287 288 289 292 291 287 286 284 282 283 286 288 287 288 288 288 289 291 291 291 292 293 292 292 290 289 287 286 288
244 245 245 248 253 255 261 264 265 266 269 273 275 274 272 270 270 273 277 279 281 282 281 280 279 279 280 282 285 287 287 285 283 282 282 283 284 285 286 288 291 293 293 294 294 293 290 289 288 288 287 290 290 288
271 268 261 252 259 271 280 280 275 274 273 272 271 272 272 273 274 277 279 281 280 276 274 272 272 271 271 273 277 279 279 278 277 277 279 282 284 287 290 293 295 296 297 295 293 292 292 292 292 293 296 299 299 298
269 268 268 267 270 275 277 278 277 271 268 275 282 281 276 275 275 275 278 278 277 274 271 270 270 269 269 268 269 272 274 276 278 280 282 285 288 291 294 297 299 299 297 297 297 297 296 296 296 293 290 289 290 293